Weather History for Rockland, ME

Change the Weather History Date:

Wednesday, November 16, 2011

  Actual Average Record
Temperature  
Mean Temperature 44 °F -  
Max Temperature 55 °F 43 °F 62 °F (2001)
Min Temperature 33 °F 30 °F 17 °F (1996)
Degree Days  
Heating Degree Days 21    
Moisture  
Dew Point 40 °F    
Average Humidity 80    
Maximum Humidity 88    
Minimum Humidity 58    
Precipitation  
Precipitation 0.18 in - - ()
Sea Level Pressure  
Sea Level Pressure 29.87 in    
Wind  
Wind Speed 2 mph (South)    
Max Wind Speed 14 mph    
Max Gust Speed 16 mph    
Visibility 8 miles    
Events      
Averages and records for this station are not official NWS values.
T = Trace of Precipitation, MM = Missing Value Source: NWS Daily Summary

Daily Weather History Graph

Daily Weather History Graph

Search for Another Location

Airport:

Trip Planner

Search our weather history database for the weather conditions in past years. The results will help you decide how hot, cold, wet, or windy it might be!

Date:

Astronomy

Nov. 16, 2011 Rise Set
Actual Time 6:32 AM EST 4:09 PM EST
Civil Twilight 6:01 AM EST 4:40 PM EST
Nautical Twilight 5:26 AM EST 5:15 PM EST
Astronomical Twilight 4:51 AM EST 5:49 PM EST
Moon 9:21 PM EST (11/16) 11:05 AM EST (11/16)
Length of Visible Light 10h 39m
Length of Day
9h 36m
Waning Gibbous, 70% of the Moon is Illuminated
Nov 16
Waning Gibbous
Nov 18
Last Quarter
Nov 25
New
Dec 2
First Quarter
Dec 10
Full

Hourly Weather History & Observations

Time (EST) Temp. Windchill Dew Point Humidity Pressure Visibility Wind Dir Wind Speed Gust Speed Precip Events Conditions
12:15 AM 37.4 °F - 33.8 °F 87% 29.93 in 10.0 mi Calm Calm - N/A   Clear
12:35 AM 37.4 °F - 32.0 °F 81% 29.93 in 10.0 mi Calm Calm - N/A   Clear
1:15 AM 35.6 °F - 30.2 °F 81% 29.94 in 10.0 mi Calm Calm - N/A   Clear
1:35 AM 35.6 °F - 30.2 °F 81% 29.94 in 10.0 mi Calm Calm - N/A   Clear
1:55 AM 35.6 °F - 30.2 °F 81% 29.95 in 10.0 mi Calm Calm - N/A   Clear
2:15 AM 35.6 °F - 30.2 °F 81% 29.95 in 10.0 mi Calm Calm - N/A   Clear
2:35 AM 33.8 °F - 28.4 °F 81% 29.94 in 10.0 mi Calm Calm - N/A   Clear
3:15 AM 33.8 °F - 28.4 °F 81% 29.94 in 10.0 mi Calm Calm - N/A   Clear
3:35 AM 33.8 °F - 28.4 °F 81% 29.94 in 10.0 mi Calm Calm - N/A   Clear
3:55 AM 33.8 °F - 30.2 °F 87% 29.94 in 10.0 mi Calm Calm - N/A   Clear
4:15 AM 33.8 °F - 28.4 °F 81% 29.94 in 10.0 mi Calm Calm - N/A   Clear
4:35 AM 33.8 °F - 28.4 °F 81% 29.94 in 10.0 mi Calm Calm - N/A   Clear
4:55 AM 33.8 °F - 28.4 °F 81% 29.94 in 10.0 mi Calm Calm - N/A   Clear
5:15 AM 33.8 °F - 28.4 °F 81% 29.95 in 10.0 mi Calm Calm - N/A   Clear
5:35 AM 33.8 °F - 30.2 °F 87% 29.95 in 10.0 mi Calm Calm - N/A   Clear
5:55 AM 33.8 °F - 30.2 °F 87% 29.95 in 10.0 mi Calm Calm - N/A   Clear
6:15 AM 33.8 °F - 30.2 °F 87% 29.94 in 10.0 mi Calm Calm - N/A   Clear
6:35 AM 33.8 °F - 28.4 °F 81% 29.95 in 10.0 mi Calm Calm - N/A   Clear
6:55 AM 33.8 °F - 30.2 °F 87% 29.95 in 10.0 mi Calm Calm - N/A   Clear
7:15 AM 35.6 °F - 30.2 °F 81% 29.96 in 10.0 mi Calm Calm - N/A   Clear
7:35 AM 42.8 °F - 39.2 °F 87% 29.96 in 10.0 mi Calm Calm - N/A   Clear
7:55 AM 46.4 °F 45.2 °F 41.0 °F 81% 29.96 in 10.0 mi South 3.5 mph - N/A   Clear
8:35 AM 53.6 °F - 42.8 °F 67% 29.96 in 10.0 mi SSE 5.8 mph - N/A   Clear
8:55 AM 53.6 °F - 41.0 °F 62% 29.95 in 10.0 mi SSE 9.2 mph - N/A   Clear
9:15 AM 53.6 °F - 41.0 °F 62% 29.95 in 10.0 mi SSE 9.2 mph 16.1 mph N/A   Clear
9:35 AM 55.4 °F - 41.0 °F 58% 29.95 in 10.0 mi SSE 11.5 mph - N/A   Clear
9:55 AM 55.4 °F - 41.0 °F 58% 29.95 in 10.0 mi SSE 11.5 mph - N/A   Clear
10:15 AM 55.4 °F - 41.0 °F 58% 29.95 in 10.0 mi SSE 11.5 mph - N/A   Clear
10:35 AM 55.4 °F - 42.8 °F 63% 29.94 in 10.0 mi SSE 13.8 mph - N/A   Clear
11:55 AM 53.6 °F - 46.4 °F 77% 29.89 in 10.0 mi South 6.9 mph - N/A   Mostly Cloudy
12:15 PM 53.6 °F - 46.4 °F 77% 29.87 in 10.0 mi South 4.6 mph - N/A   Overcast
12:35 PM 53.6 °F - 46.4 °F 77% 29.86 in 10.0 mi South 6.9 mph - N/A   Overcast
12:55 PM 53.6 °F - 46.4 °F 77% 29.84 in 10.0 mi South 5.8 mph - N/A   Overcast
1:15 PM 53.6 °F - 46.4 °F 77% 29.84 in 10.0 mi South 4.6 mph - N/A   Overcast
1:35 PM 53.6 °F - 46.4 °F 77% 29.83 in 10.0 mi South 3.5 mph - N/A   Overcast
1:55 PM 53.6 °F - 46.4 °F 77% 29.83 in 10.0 mi SSE 5.8 mph - N/A   Overcast
2:15 PM 53.6 °F - 46.4 °F 77% 29.82 in 10.0 mi South 4.6 mph - N/A   Overcast
2:35 PM 53.6 °F - 46.4 °F 77% 29.82 in 10.0 mi South 4.6 mph - N/A   Overcast
2:55 PM 53.6 °F - 46.4 °F 77% 29.82 in 10.0 mi SSW 4.6 mph - N/A   Overcast
3:35 PM 53.6 °F - 46.4 °F 77% 29.82 in 10.0 mi SSW 4.6 mph - N/A   Overcast
3:55 PM 53.6 °F - 46.4 °F 77% 29.80 in 10.0 mi South 4.6 mph - N/A   Overcast
4:15 PM 53.6 °F - 46.4 °F 77% 29.79 in 10.0 mi South 4.6 mph - N/A   Overcast
4:35 PM 51.8 °F - 46.4 °F 82% 29.78 in 10.0 mi SSE 4.6 mph - N/A   Overcast
4:55 PM 51.8 °F - 46.4 °F 82% 29.78 in 9.0 mi South 5.8 mph - N/A   Overcast
5:15 PM 51.8 °F - 46.4 °F 82% 29.79 in 5.0 mi SW 4.6 mph - N/A   Overcast
5:35 PM 51.8 °F - 48.2 °F 88% 29.79 in 5.0 mi SSW 3.5 mph - N/A   Overcast
5:55 PM 51.8 °F - 48.2 °F 88% 29.77 in 4.0 mi Calm Calm - 0.01 in   Overcast
6:15 PM 51.8 °F - 48.2 °F 88% 29.76 in 4.0 mi South 4.6 mph - 0.01 in   Overcast
6:35 PM 51.8 °F - 48.2 °F 88% 29.76 in 4.0 mi SW 3.5 mph - 0.01 in   Overcast
6:55 PM 51.8 °F - 48.2 °F 88% 29.75 in 3.0 mi Calm Calm - 0.03 in   Overcast
7:35 PM 51.8 °F - 48.2 °F 88% 29.73 in 3.0 mi Calm Calm - 0.02 in   Overcast
7:55 PM 51.8 °F - 48.2 °F 88% 29.72 in 1.5 mi Calm Calm - 0.04 in   Overcast
8:35 PM 51.8 °F - 48.2 °F 88% 29.69 in 1.0 mi Calm Calm - 0.04 in   Overcast
8:55 PM 51.8 °F - 48.2 °F 88% 29.68 in 1.0 mi East 3.5 mph - 0.05 in   Overcast
9:15 PM 51.8 °F - 48.2 °F 88% 29.70 in 0.5 mi SSW 3.5 mph - N/A   Overcast
9:55 PM 51.8 °F - 48.2 °F 88% 29.69 in 1.0 mi Calm Calm - 0.04 in   Overcast
10:15 PM 51.8 °F - 48.2 °F 88% 29.69 in 2.0 mi WNW 3.5 mph - 0.01 in   Overcast
10:35 PM 51.8 °F - 46.4 °F 82% 29.69 in 5.0 mi West 4.6 mph - 0.03 in   Overcast
10:55 PM 51.8 °F - 46.4 °F 82% 29.69 in 6.0 mi West 4.6 mph - 0.04 in   Overcast
11:15 PM 51.8 °F - 46.4 °F 82% 29.68 in 5.0 mi West 4.6 mph - 0.02 in   Mostly Cloudy
11:35 PM 51.8 °F - 46.4 °F 82% 29.67 in 8.0 mi West 3.5 mph - 0.02 in   Overcast
11:55 PM 51.8 °F - 46.4 °F 82% 29.66 in 7.0 mi West 3.5 mph - 0.03 in   Overcast